This is the latest recevied weather packets stored in our database for station/object NC4J. If no packets are shown the sender has not sent any weather packets the latest 10 day(s).
| Time | Temp. | Humidity | Pressure | Rain* | Wind** | Luminosity | Snow |
|---|---|---|---|---|---|---|---|
| 1777785379 | 7.22° C | 63% | 1017.3 hPa | 0 mm | - | 0 W/m² | - |
| 1777785077 | 7.78° C | 62% | 1017.3 hPa | 0 mm | - | 0 W/m² | - |
| 1777784773 | 7.78° C | 61% | 1017.3 hPa | 0 mm | - | 0 W/m² | - |
| 1777784470 | 8.33° C | 59% | 1017 hPa | 0 mm | - | 0 W/m² | - |
| 1777784168 | 8.33° C | 58% | 1017.2 hPa | 0 mm | - | 0 W/m² | - |
| 1777783865 | 8.89° C | 57% | 1017.2 hPa | 0 mm | - | 0 W/m² | - |
| 1777783561 | 8.89° C | 53% | 1017.6 hPa | 0 mm | - | 0 W/m² | - |
| 1777783259 | 8.89° C | 53% | 1017.2 hPa | 0 mm | - | 0 W/m² | - |
| 1777782955 | 8.89° C | 53% | 1017.2 hPa | 0 mm | - | 0 W/m² | - |
| 1777782652 | 8.89° C | 53% | 1017.2 hPa | 0 mm | - | 0 W/m² | - |
| 1777782349 | 8.89° C | 53% | 1017.1 hPa | 0 mm | - | 0 W/m² | - |
| 1777782045 | 8.33° C | 54% | 1017.1 hPa | 0 mm | - | 0 W/m² | - |
| 1777781742 | 8.33° C | 54% | 1016.8 hPa | 0 mm | - | 0 W/m² | - |
| 1777781440 | 8.89° C | 54% | 1016.9 hPa | 0 mm | - | 0 W/m² | - |
| 1777781137 | 8.89° C | 53% | 1016.8 hPa | 0 mm | - | 0 W/m² | - |
| 1777780834 | 8.33° C | 54% | 1016.8 hPa | 0 mm | - | 0 W/m² | - |
| 1777780530 | 8.33° C | 55% | 1016.6 hPa | 0 mm | - | 0 W/m² | - |
| 1777780228 | 8.33° C | 57% | 1016.6 hPa | 0 mm | - | 0 W/m² | - |
| 1777779925 | 8.33° C | 56% | 1016.8 hPa | 0 mm | - | 0 W/m² | - |
| 1777779622 | 8.33° C | 56% | 1016.5 hPa | 0 mm | - | 0 W/m² | - |
| 1777779319 | 8.33° C | 55% | 1016.7 hPa | 0 mm | - | 0 W/m² | - |
| 1777779017 | 8.33° C | 55% | 1016.5 hPa | 0 mm | - | 0 W/m² | - |
| 1777778716 | 8.33° C | 55% | 1016.5 hPa | 0 mm | - | 0 W/m² | - |
| 1777778413 | 8.33° C | 56% | 1016.5 hPa | 0 mm | - | 0 W/m² | - |
| 1777778111 | 8.33° C | 53% | 1016.6 hPa | 0 mm | - | 0 W/m² | - |
* Rain latest hour (hover to see other rain measurements)
** Current wind speed in m/s (hover to see current wind gust speed)